EN

Hourly Weather Ludenscheid

Today, 4 December, Friday

Time Temperature Precipitation Wind Pressure Humidity
00:00 -2°C° 0 mm 6 mps 706 mmHg 86%
01:00 -2°C° 0 mm 6 mps 705 mmHg 85%
02:00 -1°C° 0 mm 7 mps 704 mmHg 86%
03:00 -1°C° 0 mm 7 mps 704 mmHg 87%
04:00 -1°C° 0 mm 7 mps 703 mmHg 88%
05:00 0°C° 0.1 mm 7 mps 703 mmHg 88%
06:00 0°C° 0.1 mm 7 mps 703 mmHg 87%
07:00 +2°C° 0.1 mm 6 mps 703 mmHg 86%
08:00 +2°C° 0 mm 6 mps 704 mmHg 85%
09:00 +2°C° 0 mm 6 mps 704 mmHg 85%
10:00 +2°C° 0 mm 6 mps 704 mmHg 84%
11:00 +2°C° 0 mm 6 mps 704 mmHg 83%
12:00 +2°C° 0 mm 6 mps 705 mmHg 82%
13:00 +2°C° 0 mm 6 mps 705 mmHg 81%
14:00 +2°C° 0 mm 5 mps 705 mmHg 82%
15:00 +2°C° 0 mm 5 mps 705 mmHg 82%
16:00 +3°C° 0 mm 4 mps 706 mmHg 83%
17:00 +1°C° 0 mm 4 mps 706 mmHg 84%
18:00 +2°C° 0 mm 3 mps 706 mmHg 86%
19:00 +2°C° 0 mm 3 mps 707 mmHg 87%
20:00 +1°C° 0 mm 3 mps 707 mmHg 89%
21:00 +1°C° 0 mm 2 mps 707 mmHg 90%
22:00 +1°C° 0 mm 2 mps 708 mmHg 91%
23:00 -1°C° 0 mm 2 mps 708 mmHg 91%

Tomorrow, 5 December, Saturday

Time Temperature Precipitation Wind Pressure Humidity
00:00 +1°C° 0 mm 1 mps 708 mmHg 91%
01:00 +1°C° 0 mm 1 mps 708 mmHg 91%
02:00 +1°C° 0 mm 1 mps 709 mmHg 91%
03:00 +1°C° 0 mm 1 mps 709 mmHg 91%
04:00 +1°C° 0 mm 1 mps 709 mmHg 91%
05:00 +1°C° 0 mm 1 mps 709 mmHg 91%
06:00 +1°C° 0 mm 1 mps 709 mmHg 91%
07:00 0°C° 0 mm 0 mps 710 mmHg 91%
08:00 +2°C° 0 mm 1 mps 710 mmHg 90%
09:00 +2°C° 0 mm 1 mps 711 mmHg 90%
10:00 +3°C° 0 mm 1 mps 711 mmHg 89%
11:00 +3°C° 0 mm 1 mps 711 mmHg 86%
12:00 +4°C° 0 mm 1 mps 711 mmHg 84%
13:00 +4°C° 0 mm 1 mps 711 mmHg 82%
14:00 +4°C° 0 mm 1 mps 712 mmHg 85%
15:00 +4°C° 0 mm 1 mps 712 mmHg 87%
16:00 +3°C° 0 mm 1 mps 712 mmHg 90%
17:00 +3°C° 0 mm 1 mps 712 mmHg 91%
18:00 +2°C° 0 mm 1 mps 712 mmHg 92%
19:00 +2°C° 0 mm 1 mps 713 mmHg 93%
20:00 +1°C° 0 mm 1 mps 713 mmHg 93%
21:00 +1°C° 0 mm 1 mps 713 mmHg 93%
22:00 +1°C° 0 mm 1 mps 713 mmHg 92%
23:00 +1°C° 0 mm 1 mps 713 mmHg 92%

Day after tomorrow, 6 December, Sunday

Time Temperature Precipitation Wind Pressure Humidity
00:00 +1°C° 0 mm 1 mps 714 mmHg 92%
01:00 +1°C° 0 mm 1 mps 714 mmHg 91%
02:00 +1°C° 0 mm 1 mps 714 mmHg 91%
03:00 +1°C° 0 mm 1 mps 714 mmHg 91%
04:00 +1°C° 0 mm 1 mps 714 mmHg 90%
05:00 +1°C° 0 mm 1 mps 714 mmHg 90%
06:00 +1°C° 0 mm 1 mps 714 mmHg 89%
07:00 +1°C° 0 mm 1 mps 715 mmHg 88%
08:00 +2°C° 0 mm 1 mps 715 mmHg 86%
09:00 +2°C° 0 mm 1 mps 715 mmHg 84%
10:00 +2°C° 0 mm 0 mps 715 mmHg 82%
11:00 +3°C° 0 mm 1 mps 715 mmHg 80%
12:00 +4°C° 0 mm 1 mps 715 mmHg 78%
13:00 +5°C° 0 mm 1 mps 715 mmHg 76%
14:00 +4°C° 0 mm 1 mps 714 mmHg 79%
15:00 +4°C° 0 mm 1 mps 714 mmHg 83%
16:00 +2°C° 0 mm 2 mps 713 mmHg 86%
17:00 +2°C° 0.8 mm 2 mps 713 mmHg 89%
18:00 +1°C° 0.8 mm 2 mps 713 mmHg 92%
19:00 +1°C° 0.8 mm 2 mps 713 mmHg 96%
20:00 +1°C° 1.4 mm 2 mps 712 mmHg 96%
21:00 +1°C° 1.4 mm 2 mps 712 mmHg 96%
22:00 0°C° 1.4 mm 3 mps 711 mmHg 96%
23:00 +1°C° 0.4 mm 2 mps 711 mmHg 96%

7 December, Monday

Time Temperature Precipitation Wind Pressure Humidity
00:00 +1°C° 0.4 mm 2 mps 710 mmHg 96%
01:00 +2°C° 0.4 mm 1 mps 710 mmHg 96%
02:00 +2°C° 0.3 mm 1 mps 710 mmHg 97%
03:00 +2°C° 0.3 mm 1 mps 709 mmHg 97%
04:00 +1°C° 0.3 mm 0 mps 709 mmHg 97%
05:00 +2°C° 0.1 mm 0 mps 709 mmHg 97%
06:00 +3°C° 0.1 mm 1 mps 709 mmHg 96%
07:00 +3°C° 0.1 mm 1 mps 709 mmHg 96%
08:00 +3°C° 0 mm 1 mps 710 mmHg 96%
09:00 +3°C° 0 mm 1 mps 710 mmHg 95%
10:00 +3°C° 0 mm 2 mps 710 mmHg 95%
11:00 +3°C° 0 mm 2 mps 710 mmHg 94%
12:00 +3°C° 0 mm 2 mps 710 mmHg 93%
13:00 +4°C° 0 mm 2 mps 710 mmHg 92%
14:00 +4°C° 0.1 mm 2 mps 711 mmHg 92%
15:00 +3°C° 0.1 mm 3 mps 711 mmHg 93%
16:00 +2°C° 0.1 mm 3 mps 711 mmHg 93%
17:00 +2°C° 0.6 mm 3 mps 711 mmHg 94%
18:00 +2°C° 0.6 mm 3 mps 712 mmHg 94%
19:00 +2°C° 0.6 mm 3 mps 712 mmHg 94%
20:00 +1°C° 0.8 mm 4 mps 712 mmHg 95%
21:00 +1°C° 0.8 mm 4 mps 713 mmHg 95%
22:00 +1°C° 0.8 mm 4 mps 713 mmHg 95%
23:00 0°C° 0.5 mm 4 mps 713 mmHg 94%

8 December, Tuesday

Time Temperature Precipitation Wind Pressure Humidity
00:00 0°C° 0.5 mm 4 mps 714 mmHg 94%
01:00 0°C° 0.5 mm 4 mps 714 mmHg 94%
02:00 +1°C° 0 mm 3 mps 714 mmHg 93%
03:00 +1°C° 0 mm 3 mps 715 mmHg 92%
04:00 +1°C° 0 mm 2 mps 715 mmHg 90%
05:00 +1°C° 0 mm 2 mps 715 mmHg 91%
06:00 +1°C° 0 mm 2 mps 715 mmHg 93%
07:00 -1°C° 0 mm 2 mps 715 mmHg 94%
08:00 +1°C° 0 mm 2 mps 716 mmHg 92%
09:00 +1°C° 0 mm 2 mps 716 mmHg 90%
10:00 +1°C° 0 mm 2 mps 716 mmHg 88%
11:00 +2°C° 0 mm 2 mps 716 mmHg 85%
12:00 +2°C° 0 mm 2 mps 716 mmHg 82%
13:00 +3°C° 0 mm 2 mps 716 mmHg 79%
14:00 +3°C° 0 mm 2 mps 717 mmHg 82%
15:00 +2°C° 0 mm 2 mps 717 mmHg 84%
16:00 +3°C° 0 mm 1 mps 717 mmHg 87%
17:00 +2°C° 0 mm 1 mps 717 mmHg 88%
18:00 +1°C° 0 mm 1 mps 717 mmHg 90%
19:00 0°C° 0 mm 1 mps 717 mmHg 91%
20:00 0°C° 0 mm 1 mps 717 mmHg 91%
21:00 0°C° 0 mm 1 mps 717 mmHg 90%
22:00 0°C° 0 mm 1 mps 717 mmHg 90%
23:00 0°C° 0 mm 1 mps 717 mmHg 90%

9 December, Wednesday

Time Temperature Precipitation Wind Pressure Humidity
00:00 0°C° 0 mm 1 mps 717 mmHg 90%
01:00 0°C° 0 mm 1 mps 717 mmHg 89%
02:00 0°C° 0 mm 1 mps 717 mmHg 89%
03:00 0°C° 0 mm 1 mps 717 mmHg 89%
04:00 0°C° 0 mm 1 mps 717 mmHg 90%
05:00 0°C° 0 mm 1 mps 717 mmHg 90%
06:00 -1°C° 0 mm 0 mps 717 mmHg 90%
07:00 -2°C° 0 mm 0 mps 717 mmHg 90%
08:00 -1°C° 0 mm 0 mps 718 mmHg 89%
09:00 +1°C° 0 mm 1 mps 718 mmHg 88%
10:00 +1°C° 0 mm 1 mps 718 mmHg 88%
11:00 +2°C° 0 mm 1 mps 718 mmHg 87%
12:00 +3°C° 0 mm 1 mps 718 mmHg 86%
13:00 +3°C° 0 mm 1 mps 718 mmHg 85%
14:00 +3°C° 0 mm 1 mps 718 mmHg 88%
15:00 +3°C° 0 mm 1 mps 718 mmHg 90%
16:00 +3°C° 0 mm 1 mps 718 mmHg 93%
17:00 +2°C° 0 mm 1 mps 719 mmHg 94%
18:00 +2°C° 0 mm 1 mps 719 mmHg 94%
19:00 +2°C° 0 mm 1 mps 719 mmHg 95%
20:00 +2°C° 0 mm 1 mps 719 mmHg 95%
21:00 +2°C° 0 mm 1 mps 720 mmHg 95%
22:00 +2°C° 0 mm 1 mps 720 mmHg 95%
23:00 +2°C° 0 mm 1 mps 720 mmHg 96%
Show more